This demonstration page uses our WeatherBlox Daily Observations layout. Learn more.

Hourly Observations for October 30, 2015

Temp ( °F °C ) Dew Point ( °F °C ) Humidity (%) Winds ( mph kmh ) Pressure ( in mb ) Visibility ( mi km ) Precip ( " mm )
12:15 am 00:15 Clear 32 0 23 -5.1 69 69 SSE 6 9 30.09 1019 10 16.0934 0 0
12:35 am 00:35 Clear 33 0.5 23 -5.1 66 66 SSE 3 6 30.09 1019 10 16.0934 0 0
12:55 am 00:55 Clear 32 -0.1 22 -5.3 68 68 SSE 3 6 30.06 1018 10 16.0934 0 0
1:15 am 01:15 Clear 31 -0.5 22 -5.3 70 70 Calm 30.06 1018 10 16.0934 0 0
1:35 am 01:35 Clear 31 -0.6 24 -4.7 74 74 SSE 5 7 30.09 1019 10 16.0934 0 0
1:55 am 01:55 Clear 33 0.5 25 -4.1 72 72 S 5 7 30.06 1018 10 16.0934 0 0
2:15 am 02:15 Clear 34 1.3 25 -3.8 69 69 S 3 6 30.06 1018 10 16.0934 0 0
2:35 am 02:35 Partly Cloudy 34 1.1 26 -3.6 71 71 SSE 6 9 30.06 1018 10 16.0934 0 0
2:55 am 02:55 Clear 33 0.8 26 -3.6 73 73 SE 6 9 30.06 1018 10 16.0934 0 0
3:15 am 03:15 Clear 34 1 26 -3.2 74 74 SSE 6 9 30.06 1018 10 16.0934 0 0
3:35 am 03:35 Clear 34 1.1 26 -3.6 71 71 S 6 9 30.06 1018 10 16.0934 0 0
3:55 am 03:55 Clear 33 0.3 25 -4 73 73 S 5 7 30.06 1018 10 16.0934 0 0
4:15 am 04:15 Clear 33 0.4 25 -4.1 72 72 SSE 5 7 30.06 1018 10 16.0934 0 0
4:35 am 04:35 Clear 34 1 25 -4.1 69 69 S 5 7 30.06 1018 10 16.0934 0 0
4:55 am 04:55 Clear 33 0.6 25 -4 72 72 SSE 5 7 30.06 1018 10 16.0934 0 0
5:15 am 05:15 Clear 33 0.7 25 -3.8 72 72 SSE 5 7 30.06 1018 10 16.0934 0 0
5:35 am 05:35 Clear 33 0.5 27 -2.8 79 79 SSE 3 6 30.06 1018 10 16.0934 0 0
5:55 am 05:55 Partly Cloudy 35 1.5 27 -2.6 74 74 SSE 5 7 30.06 1018 10 16.0934 0 0
6:15 am 06:15 Mostly Cloudy 36 2.3 28 -2.5 71 71 SSE 5 7 30.03 1017 10 16.0934 0 0
6:35 am 06:35 Partly Cloudy 34 1.3 27 -2.6 76 76 SSE 3 6 30.03 1017 10 16.0934 0 0
6:55 am 06:55 Partly Cloudy 33 0.8 27 -2.7 78 78 Calm 30.03 1017 10 16.0934 0 0
7:15 am 07:15 Mostly Cloudy 35 1.5 28 -2.5 75 75 SSE 3 6 30.03 1017 10 16.0934 0 0
7:35 am 07:35 Mostly Cloudy 35 1.5 28 -2.3 76 76 SE 5 7 29.97 1015 10 16.0934 0 0
7:55 am 07:55 Cloudy 36 2 28 -2.3 73 73 SSE 6 9 29.97 1015 10 16.0934 0 0
8:15 am 08:15 Cloudy 36 2.4 28 -2.3 71 71 SSE 5 7 29.97 1015 10 16.0934 0 0
8:35 am 08:35 Cloudy 38 3.1 28 -2.2 69 69 SSE 7 11 29.97 1015 10 16.0934 0 0
8:55 am 08:55 Cloudy 39 4.1 28 -2.5 63 63 S 6 9 29.97 1015 10 16.0934 0 0
9:15 am 09:15 Cloudy 40 4.5 27 -2.8 59 59 SSE 7 11 29.97 1015 10 16.0934 0 0
9:35 am 09:35 Cloudy 41 5.1 27 -2.8 57 57 S 8 13 30 1016 10 16.0934 0 0
9:55 am 09:55 Cloudy 42 5.8 26 -3.5 52 52 S 9 15 29.97 1015 10 16.0934 0 0
10:15 am 10:15 Cloudy 43 6 25 -4.1 49 49 S 13 20 29.97 1015 10 16.0934 0 0
10:35 am 10:35 Mostly Cloudy 44 6.5 25 -3.9 48 48 S 13 20 29.97 1015 10 16.0934 0 0
10:55 am 10:55 Cloudy 44 6.7 25 -3.8 47 47 S 9 15 29.97 1015 10 16.0934 0 0
11:15 am 11:15 Cloudy 44 6.7 25 -3.7 48 48 S 12 19 29.97 1015 10 16.0934 0 0
11:35 am 11:35 Cloudy 45 7 25 -3.7 47 47 SSW 12 19 29.97 1015 10 16.0934 0 0
11:55 am 11:55 Cloudy with Light Rain 43 6.3 29 -1.5 58 58 SSW 13 20 30 1016 10 16.0934 0 0
12:15 pm 12:15 Cloudy with Light Rain 41 5.1 32 -0.1 69 69 S 7 11 30.03 1017 10 16.0934 0.01 0.254
12:35 pm 12:35 Cloudy with Rain 41 5.1 33 0.5 72 72 SSW 5 7 30.03 1017 10 16.0934 0.01 0.254
12:55 pm 12:55 Cloudy with Light Rain 41 5.1 34 1.2 76 76 SSW 3 6 30.03 1017 10 16.0934 0.02 0.508
1:15 pm 13:15 Cloudy with Rain 41 5 34 1.2 77 77 Calm 30 1016 10 16.0934 0.01 0.254
1:35 pm 13:35 Cloudy with Light Drizzle 41 5.1 34 1.3 77 77 Calm 29.97 1015 10 16.0934 0.01 0.254
1:55 pm 13:55 Cloudy with Light Rain 41 5.1 34 1.1 76 76 Calm 29.97 1015 10 16.0934 0.02 0.508
2:15 pm 14:15 Cloudy with Light Rain 41 5.2 35 1.7 78 78 Calm 29.97 1015 10 16.0934 0.01 0.254
2:35 pm 14:35 Cloudy with Light Drizzle 42 5.3 35 1.7 78 78 Calm 29.97 1015 10 16.0934 0.02 0.508
2:55 pm 14:55 Cloudy with Light Rain 41 5.2 36 2.2 81 81 Calm 29.97 1015 10 16.0934 0.02 0.508
3:15 pm 15:15 Cloudy with Light Rain 41 5.1 36 2.1 81 81 Calm 29.91 1013 7 11.26538 0.01 0.254
3:35 pm 15:35 Cloudy with Light Rain 41 5.1 37 2.5 83 83 Calm 29.91 1013 10 16.0934 0.02 0.508
3:55 pm 15:55 Cloudy with Rain 41 5.1 37 2.6 84 84 Calm 29.91 1013 7 11.26538 0.03 0.762
4:15 pm 16:15 Cloudy with Light Rain 41 5.1 37 2.8 85 85 SSE 3 6 29.91 1013 10 16.0934 0.02 0.508
4:35 pm 16:35 Cloudy with Light Rain 41 4.8 36 2.2 83 83 SE 3 6 29.88 1012 10 16.0934 0.03 0.762
4:55 pm 16:55 Cloudy with Light Rain 40 4.7 37 2.5 86 86 SE 3 6 29.88 1012 10 16.0934 0.05 1.27
5:15 pm 17:15 Cloudy with Light Rain 41 4.8 38 3.3 90 90 ESE 6 9 29.88 1012 10 16.0934 0.01 0.254
5:35 pm 17:35 Cloudy with Rain 40 4.5 37 2.8 89 89 SE 5 7 29.88 1012 10 16.0934 0.01 0.254
5:55 pm 17:55 Cloudy with Light Drizzle 40 4.5 38 3.1 91 91 ESE 6 9 29.85 1011 10 16.0934 0.01 0.254
6:15 pm 18:15 Cloudy with Light Rain 40 4.5 37 3 90 90 SE 5 7 29.85 1011 10 16.0934 0.01 0.254
6:35 pm 18:35 Cloudy with Light Rain 40 4.5 38 3.1 91 91 ESE 5 7 29.85 1011 10 16.0934 0.03 0.762
6:55 pm 18:55 Cloudy with Light Rain 40 4.5 38 3.3 92 92 ESE 6 9 29.85 1011 10 16.0934 0.05 1.27
7:15 pm 19:15 Cloudy with Light Rain 40 4.3 38 3.3 93 93 ESE 8 13 29.88 1012 10 16.0934 0.03 0.762
7:35 pm 19:35 Cloudy with Rain 40 4.3 38 3.4 94 94 ESE 7 11 29.88 1012 10 16.0934 0.04 1.016
7:55 pm 19:55 Cloudy with Rain 39 4 38 3.1 94 94 ESE 7 11 29.83 1010 10 16.0934 0.05 1.27
8:15 pm 20:15 Cloudy with Rain 39 4.1 38 3.3 95 95 SE 5 7 29.88 1012 10 16.0934 0 0
8:35 pm 20:35 Cloudy with Rain 39 4.1 38 3.4 95 95 SE 5 7 29.88 1012 7 11.26538 0.01 0.254
8:55 pm 20:55 Cloudy with Light Drizzle 40 4.3 38 3.5 95 95 SE 7 11 29.88 1012 10 16.0934 0.02 0.508
9:15 pm 21:15 Cloudy with Light Rain 40 4.5 38 3.6 94 94 SSE 7 11 29.83 1010 10 16.0934 0 0
9:35 pm 21:35 Cloudy with Light Rain 40 4.5 38 3.6 94 94 SSE 8 13 29.83 1010 7 11.26538 0.02 0.508
9:55 pm 21:55 Cloudy with Light Rain 40 4.5 38 3.6 94 94 SSE 6 9 29.83 1010 7 11.26538 0.03 0.762
10:15 pm 22:15 Cloudy with Light Drizzle 40 4.5 38 3.6 94 94 SSE 3 6 29.83 1010 10 16.0934 0 0
10:35 pm 22:35 Cloudy with Light Rain 40 4.5 38 3.6 94 94 Calm 29.83 1010 10 16.0934 0 0
10:55 pm 22:55 Cloudy with Light Rain 40 4.5 38 3.6 94 94 WSW 3 6 29.83 1010 7 11.26538 0.01 0.254
11:15 pm 23:15 Cloudy with Light Rain 40 4.5 38 3.6 94 94 Calm 29.83 1010 5 8.0467 0.02 0.508
11:35 pm 23:35 Cloudy with Drizzle 40 4.5 39 3.7 95 95 Calm 29.83 1010 7 11.26538 0.02 0.508
11:55 pm 23:55 Cloudy with Light Drizzle 40 4.6 39 4 96 96 Calm 29.83 1010 10 16.0934 0.02 0.508

Powered by AerisWeather